Regional Weather Roundup
Issued by NWS

Home | Current Version | Previous Version | Text Only | Print | Product List | Glossary Off
Versions: 1 2 3 4 5 6 7 8 9 10 11 12 13 14 15 16 17 18 19 20 21 22 23 24 25 26 27 28 29 30 31 32 33 34 35 36 37 38 39 40 41 42 43 44 45 46 47 48 49 50

000
ASUS43 KLOT 260508
RWRIL

ILLINOIS REGIONAL WEATHER ROUNDUP
NATIONAL WEATHER SERVICE CHICAGO/ROMEOVILLE IL
1200 AM CDT SUN MAR 26 2017

NOTE: "FAIR" INDICATES FEW OR NO CLOUDS BELOW 12,000 FEET WITH NO
SIGNIFICANT WEATHER AND/OR OBSTRUCTIONS TO VISIBILITY.

* THESE STATIONS ARE NOT UNDER NWS QUALITY CONTROL. THEY ALSO MAY NOT
  REPORT WEATHER SUCH AS PRECIPITATION OR FOG.

ILZ001-002-007-009-015-016-024-260600-
NORTHWEST ILLINOIS

CITY           SKY/WX    TMP DP  RH WIND       PRES   REMARKS
MOLINE         CLOUDY    47  45  93 E13       29.86F FOG
STERLING*      LGT RAIN  46  45  96 E14       29.89F FOG
SAVANNA*       CLOUDY    44  43  96 NE7       29.91F
$$

ILZ003-004-008-010-011-017-018-260600-
NORTH CENTRAL ILLINOIS

CITY           SKY/WX    TMP DP  RH WIND       PRES   REMARKS
ROCKFORD       CLOUDY    45  43  93 NE10      29.95F FOG
FREEPORT*      CLOUDY    41  41  99 NE8       29.94F FOG
ROCHELLE*      CLOUDY    46  46  99 NE12      29.92S FOG
DE KALB*       DRIZZLE   46  46  98 E10       29.93F
PERU*          CLOUDY    47  47  97 E12       29.89F FOG
$$

ILZ005-006-012>014-019>023-260600-
NORTHEAST ILLINOIS

CITY           SKY/WX    TMP DP  RH WIND       PRES   REMARKS
CHICAGO-OHARE  LGT RAIN  46  43  89 NE9       29.94F FOG
CHICAGO-MIDWAY CLOUDY    49  47  93 N10       29.94F FOG
AURORA         CLOUDY    49  47  93 NE8       29.92F FOG
LANSING*       CLOUDY    52  52 100 E8        29.94F
JOLIET*        CLOUDY    53  53  99 E6        29.92F FOG
WAUKEGAN       CLOUDY    40  40 100 NE10      29.98S FOG
DUPAGE AIRPORT LGT RAIN  46  46 100 E7        29.93F FOG
KANKAKEE*      CLOUDY    55  55  97 E6        29.92F
WHEELING       LGT RAIN  42  42 100 NE6       29.98S FOG
MORRIS*        CLOUDY    51  50  97 E6        29.90F FOG
ROMEOVILLE*    CLOUDY    49  49 100 E10       29.92F FOG
$$

LMZ740>746-260600-
SOUTHERN LAKE MICHIGAN

STATION/POSITION SKY/WX   TEMP    WIND        PRES    VSBY  WAVE
                          AIR SEA DIR/SP/G                  HT/PER
                          (F)     (DEG/KT/KT) (MB)    (MI)  (FT/S)
HARRISON CRIB              45      90/  6/  7   N/A
BURNHAM HARBOR             44      30/  4/  7   N/A
CALUMET HARBOR             44      80/  6/  8 1013.5F
BURNS HARBOR               52     130/ 13/ 22 1014.9F
MICHIGAN CITY              50     110/ 13/ 17   N/A
$$

ILZ025>027-034>036-040-047-049-050-058-095>099-260600-
WEST-CENTRAL ILLINOIS

CITY           SKY/WX    TMP DP  RH WIND       PRES   REMARKS
QUINCY         MOCLDY    56  55  97 SE8       29.79S
GALESBURG*     CLOUDY    57  57  99 E5        29.82S
MACOMB*        CLOUDY    57  56  97 SE9       29.83F
JACKSONVILLE*  MOCLDY    55  52  89 S12       29.83S
PITTSFIELD*    CLOUDY    55  54  95 SE10      29.82F
$$

ILZ028>032-037-038-041>044-048-051>054-059>061-260600-
CENTRAL ILLINOIS

CITY           SKY/WX    TMP DP  RH WIND       PRES   REMARKS
PONTIAC        CLOUDY    57  56  97 E12       29.89F FOG
BLOOMINGTON    CLOUDY    58  55  90 SE14      29.87F
DECATUR        MOCLDY    60  54  80 S10       29.86F
PEORIA         CLOUDY    59  57  93 E9        29.84F
LACON*         CLOUDY    53  53 100 E8        29.86F FOG
LINCOLN*       CLOUDY    59  57  96 SE10G16   29.85F
SPRINGFIELD    CLOUDY    60  57  89 S13       29.85S
TAYLORVILLE    CLOUDY    57  55  94 S12       29.85S
$$

ILZ033-039-045-046-055>057-062-063-260600-
EAST-CENTRAL ILLINOIS

CITY           SKY/WX    TMP DP  RH WIND       PRES   REMARKS
CHAMPAIGN      CLOUDY    59  53  80 SE8       29.88F
RANTOUL*       CLOUDY    58  55  91 SE6       29.89F
MATTOON        MOCLDY    60  54  80 S7        29.88F
PARIS*         CLOUDY    58  55  91 SE5       29.91F
$$

ILZ079-100>102-260600-
SOUTHWEST ILLINOIS

CITY           SKY/WX    TMP DP  RH WIND       PRES   REMARKS
ALTON          CLOUDY    54  52  92 S9        29.85F
BELLEVILLE     PTCLDY    54  54 100 S5        29.85S
CAHOKIA*       CLOUDY    57  51  80 SW6       29.86S
SPARTA*        MOCLDY    55  54  95 SE3       29.88S
$$

ILZ064>066-069>071-074>076-080>082-084>086-088>090-092>094-260600-
SOUTH-CENTRAL ILLINOIS

CITY           SKY/WX    TMP DP  RH WIND       PRES   REMARKS
CARBONDALE     MOCLDY    57  57 100 S10       29.89S
CAIRO*         CLOUDY    57  56  95 S8        29.90S
EFFINGHAM*     LGT RAIN  60  56  87 SE5       29.90S
MARION         CLOUDY    59  59 100 S8        29.90F
MT. VERNON     CLOUDY    58  56  93 S7        29.89F
CENTRALIA*     CLOUDY    59  58  95 S10       29.87S
SALEM*         CLOUDY    60  57  90 S8        29.88S
METROPOLIS*    CLOUDY    57  56  95 S5        29.92S
$$

ILZ067-068-072-073-078-083-087-091-260600-
SOUTHEAST ILLINOIS

CITY           SKY/WX    TMP DP  RH WIND       PRES   REMARKS
LAWRENCEVILLE  CLOUDY    62  57  83 S12       29.92S
FLORA*         LGT RAIN  60  57  91 S9        29.89F
FAIRFIELD*     CLOUDY    56  54  90 S3        29.89F
HARRISBURG*    LGT RAIN  60  56  87 S7        29.91S
ROBINSON*      MOCLDY    58  56  93 SE5       29.92S
CARMI*         MOCLDY    61  55  82 S9        29.90F
$$

ABBREVIATIONS USED IN REMARKS
   TC - TEMPERATURE IN CELSIUS
  WCI - WIND CHILL INDEX
   HX - HEAT INDEX
  VSB - VISIBILITY
$$




USA.gov is the U.S. government's official web portal to all federal, state and local government web resources and services.